AirNav   Everest Fuels
 
 1421 users online  

22XS Longhorn Auxiliary Landing Strip
Fort Hood (Killeen), Texas, USA

GOING TO FORT HOOD (KILLEEN)?


FAA INFORMATION EFFECTIVE 25 FEBRUARY 2021

Location

FAA Identifier: 22XS
Lat/Long: 31-22-15.6010N 097-40-01.0700W
31-22.260017N 097-40.017833W
31.3710003,-97.6669639
(estimated)
Elevation: 720 ft. / 219 m (estimated)
Variation: 06E (1995)
From city: 6 miles NW of FORT HOOD(KILLEEN), TX
Time zone: UTC -6 (UTC -5 during Daylight Saving Time)
Zip code: 76544

Airport Operations

Airport use: Private use. Permission required prior to landing
Control tower: yes
ARTCC: FORT WORTH CENTER
FSS: SAN ANGELO FLIGHT SERVICE STATION
Attendance: 
Segmented circle: no

Airport Communications

CTAF/UNICOM: 122.7
LONGHORN GROUND: 142.8 238.2 38.9 [0900-0100 MON-FRI, OTHER TIMES BY NOTAM.]
LONGHORN TOWER: 138.55 237.5 36.5 [0900-0100 MON-FRI, OTHER TIMES BY NOTAM.]
EMERG: 243.0
WX AWOS-3 at GOP (7 nm NW): 119.725 (254-865-6742)
WX AWOS-3PT at ILE (17 nm S): 128.575 (254-690-3131)
WX AWOS-3PT at TPL (19 nm SE): 134.975 (254-774-8337)
WX AWOS-3PT at PWG (19 nm E): 135.525 (254-848-4581)

Nearby radio navigation aids

VOR radial/distance  VOR name  Freq  Var
GRKr013/21.6GRAY VOR/DME111.8007E
AGJr060/26.8GOOCH SPRINGS VORTAC112.5005E
ACTr220/26.8WACO VORTAC115.3009E

 
NDB name  Hdg/Dist  Freq  Var  ID
ROBINSON252/31.640003EROB .-. --- -...

Airport Services

Runway Information

Runway 15/33

Dimensions: 3488 x 75 ft. / 1063 x 23 m
Surface: asphalt
RUNWAY 15  RUNWAY 33
Traffic pattern: leftleft

Airport Ownership and Management from official FAA records

Ownership: U.S. Army
Owner: US ARMY AERONAUTICAL SVCS AGENCY
FT BELVOIR, VA
Manager: KILLEEN, TX 76549
Phone 254-288-9200
GRK BASE OPS.

Additional Remarks

ATTENDED DUR TRNG PERIODS, OPR HR BY NOTAM (HLR) AS RQR BY TRNG REQ.
RSTD: PPR. CTC HLR OPS DSN 738-3811 OR 737-7585, C254-288-3811 OR C254-449-5146.
RSTD: ALL ARR/DEP ACFT MUST OPEN/CLSD FLT PLANS WITH ROBERT GRAY AAF OPS DSN 738-9200, C254-288-9200, OR UNIT FLT OPS WHEN ON A TACTICAL FLT STRIP.
CAUTION: SOME ACFT OPR IN AREA WO CONSPICUOUS MRK AND BLEND WITH TERRAIN.
CTC FLIGHT FOLLOWING 141.175/357.9.
FOR CD CTC FORT WORTH ARTCC AT 817-858-7584.

Instrument Procedures

There are no published instrument procedures at 22XS.

Some nearby airports with instrument procedures:

KHLR - Hood AHP Airport (14 nm S)
KILE - Skylark Field Airport (17 nm S)
KTPL - Draughon-Miller Central Texas Regional Airport (19 nm SE)
KPWG - Mc GregorExecutive Airport (19 nm E)
KGRK - Robert Gray Army Airfield (20 nm SW)
 
Loc | Ops | Rwys | IFR | FBO | Links
Com | Nav | Svcs | Stats | Notes

City of Fort Worth
 
Area around 22XS (Longhorn Auxiliary Landing Strip)
 
Road maps at: MapQuest Bing Google
 
Aerial photo
No photo
 
Sectional chart

 
Airport distance calculator
Flying to Longhorn Auxiliary Landing Strip? Find the distance to fly.

From to 22XS

Sunrise and sunset
Times for 26-Feb-2021
 Local
(UTC-6)
 Zulu
(UTC)
Morning civil twilight06:3712:37
Sunrise07:0213:02
Sunset18:2500:25
Evening civil twilight18:5000:50

Current date and time
Zulu (UTC)  26-Feb-2021 18:26:02
Local (UTC-6)  26-Feb-2021 12:26:02
 
METAR
KGOP 
7nm NW 
261755Z AUTO 00000KT 10SM BKN013 BKN026 BKN047 12/08 A3001 RMK AO2
KHLR 
14nm S 
261718Z AUTO 00000KT 10SM SCT008 OVC017 10/08 A3000 RMK AO2 CIG 008V017 SLP159 PNO $
KILE 
18nm S 
261756Z AUTO 00000KT 10SM FEW012 OVC022 11/08 A3000 RMK AO2 SLP155 T01110078 10111 20072 58008
KPWG 
19nm E 
261756Z AUTO 00000KT 10SM OVC012 11/09 A3000 RMK AO2 SLP157 T01110089 10117 20078 58007
KTPL 
20nm SE 
261751Z AUTO 27003KT 10SM OVC007 12/09 A3001 RMK AO2 SLP158 T01170094 10117 20078 58004
TAF
KGRK 
20nm SW 
261310Z 2613/2714 34006KT 8000 -SHRA OVC009 QNH2993INS BECMG 2620/2621 20002KT 8000 BR BKN010 OVC020 QNH2983INS BECMG 2623/2624 19003KT 9999 NSW OVC020 QNH2978INS BECMG 2703/2704 12003KT 8000 BR OVC007 QNH2982INS BECMG 2712/2713 16006KT 8000 -SHRA OVC007 QNH2979INS TX17/2622Z TN07/2613Z
NOTAMs
Click for the latest NOTAMs
NOTAMs are issued by the DoD/FAA and will open in a separate window not controlled by AirNav.

 

 
 

Would you like to see your business listed on this page?

 If your business provides an interesting product or service to pilots, flight crews, aircraft, or users of the Longhorn Auxiliary Landing Strip, you should consider listing it here.  To start the listing process, click on the button below
 
Add a business
 

Other Pages about Longhorn Auxiliary Landing Strip

Update a link
 
Copyright © AirNav, LLC. All rights reserved. Privacy Policy  Contact